Flag for Germany Weather past 2 weeks in Neumünster, Schleswig-Holstein, Germany

Now
55 °F

Clear.


Feels Like: 55 °F
Forecast: 59 / 78 °F
Wind: 1 mph from Southwest

Location: Itzehoe

Current Time: Jul 31, 2014 at 4:09:58 AM

Latest Report: Jul 31, 2014 at 3:00 AM


Visibility: 11 mi

Pressure: 29.90 "Hg

Humidity: 95%

Dew point: 54 °F

Location of NeumünsterLocation

Historic Weather in Neumünster — Graph

°F

Neumünster temperature yesterday

Maximum temperature yesterday: 72 °F (at 3:00 PM)
Minimum temperature yesterday: 60 °F (at 6:00 AM)
Average temperature yesterday: 67 °F

Past Weeks' High & Low Weather Summary

 TemperatureHumidityPressure
High87 °F (Jul 19, 5:00 PM)100% (Jul 28, 6:00 AM)30.21 "Hg (Jul 28, 6:00 AM)
Low48 °F (Jul 17, 6:00 AM)32% (Jul 25, 3:00 PM)29.79 "Hg (Jul 29, 9:00 PM)
Average70 °F71%30.01 "Hg
* Reported Jul 16 1:00 AM — Jul 31 1:00 AM, Neumünster, Weather by CustomWeather, © 2014

Note: Actual official high and low records may vary slightly from our data, if they occured in-between our weather recording intervals... More about our weather records

Advertising

Neumünster weather history for previous 24 hours

 ConditionsComfort  
Time TempWeatherWind HumidityBarometerVisibility
1:00 AM
Jul 31
59 °FPassing clouds.1 mph87%29.90 "Hg19 mi
12:00 AM60 °FClear.1 mph85%29.90 "Hg19 mi
10:00 PM
Jul 30
64 °FPassing clouds.2 mph76%29.89 "Hg19 mi
9:00 PM66 °FPassing clouds.2 mph70%29.88 "Hg22 mi
7:00 PM69 °FSunny.3 mph65%29.85 "Hg19 mi
6:00 PM72 °FPassing clouds.5 mph59%29.85 "Hg10 mi
5:00 PM71 °FPassing clouds.5 mph59%29.84 "Hg12 mi
4:00 PM72 °FOvercast.5 mph56%29.84 "Hg16 mi
3:00 PM72 °FOvercast.5 mph59%29.83 "Hg19 mi
1:00 PM72 °FPartly sunny.3 mph59%29.83 "Hg17 mi
12:00 PM70 °FOvercast.5 mph64%29.83 "Hg17 mi
10:00 AM65 °FOvercast.6 mph74%29.81 "Hg19 mi
9:00 AM65 °FScattered clouds.5 mph82%29.80 "Hg17 mi
7:00 AM62 °FPassing clouds.3 mph85%29.79 "Hg16 mi
6:00 AM60 °FScattered clouds.3 mph87%29.79 "Hg13 mi
4:00 AM62 °FPassing clouds.3 mph84%29.79 "Hg14 mi
Weather by CustomWeather, © 2014

See weather overviewHow to use our weather pages